Regional Weather Roundup
Issued by NWS

Home | Current Version | Previous Version | Text Only | Print | Product List | Glossary On
Versions: 1 2 3 4 5 6 7 8 9 10 11 12 13 14 15 16 17 18 19 20 21 22 23 24 25 26 27 28 29 30 31 32 33 34 35 36 37 38 39 40 41 42 43 44 45 46 47 48 49 50
730
ASUS44 KLIX 191710
RWRLA
LOUISIANA WEATHER ROUNDUP
NATIONAL WEATHER SERVICE NEW ORLEANS LA
1200 PM CDT SAT APR 19 2014

NOTE: "FAIR" INDICATES FEW OR NO CLOUDS BELOW 12,000 FEET WITH NO
      SIGNIFICANT WEATHER AND/OR OBSTRUCTIONS TO VISIBILITY.
      SKY/WX - SKY CONDITION AND SIGNIFICANT WEATHER.
      TMP - AIR TEMPERATURE.    DP   - DEWPOINT TEMPERATURE.
      RH  - RELATIVE HUMIDITY.  PRES - PRESSURE.
      HX  - HEAT INDEX.         WCI  - WIND CHILL INDEX.

*  THESE STATIONS ARE NOT NWS OR FAA STATIONS AND ARE NOT UNDER
   NWS QUALITY CONTROL.

LAZ040-048-061>063-065-066-069-191800-
SOUTHEAST LOUISIANA

CITY           SKY/WX    TMP DP  RH WIND       PRES   REMARKS
N.O. AUDUBON     N/A     73  52  46 MISG        N/A
N.O. INTL ARPT MOSUNNY   70  54  56 VRB7      30.17F
N.O. LAKEFRONT SUNNY     66  55  67 W9        30.17F
N.O. DOWNTOWN* FAIR      70  48  46 N6        30.17F
SLIDELL        SUNNY     73  50  44 N12       30.14F
BATON ROUGE    SUNNY     74  52  46 VRB5      30.18F
BOOTHVILLE     SUNNY     65  55  70 N7        30.16S
BELLE CHASSE   MOSUNNY   72  50  45 NE8       30.16S
BOGALUSA*        N/A     74  49  42 N9G17     30.17F
GALLIANO*      MOSUNNY   71  53  53 N8        30.17S
NEW ROADS*     FAIR      70  54  57 CALM      30.19F
GONZALES*      FAIR      71  53  51 N3        30.18S
HAMMOND*       SUNNY     75  46  35 N8        30.18S
HOUMA*         SUNNY     72  52  49 N5        30.17S
PORT FOURCHON* SUNNY     68  54  60 NE8       30.18S

$$

LAZ041-044-053-054-191800-
SOUTHWEST LOUISIANA

CITY           SKY/WX    TMP DP  RH WIND       PRES   REMARKS
LAKE CHARLES   SUNNY     72  56  57 VRB3      30.21S
LAFAYETTE      SUNNY     73  52  47 NE8       30.19F
PATTERSON      SUNNY     73  54  49 N7        30.22S
SALT POINT       N/A     71  59  65 W6        30.18S
NEW IBERIA     SUNNY     74  53  48 MISG      30.20F
CHENAULT AIRPK SUNNY     72  55  56 CALM      30.22F

$$

LAZ027-028-191800-
CENTRAL LOUISIANA

CITY           SKY/WX    TMP DP  RH WIND       PRES   REMARKS
FORT POLK      MOSUNNY   71  55  56 VRB3      30.21S
ALEXANDRIA INT MOSUNNY   72  51  47 VRB3      30.20F
ALEXANDRIA     SUNNY     75  51  43 N3        30.21F

$$

LAZ001-002-191800-
NORTHWEST LOUISIANA

CITY           SKY/WX    TMP DP  RH WIND       PRES   REMARKS
SHREVEPORT     PTSUNNY   74  54  49 VRB3      30.21F
BARKSDALE AFB  SUNNY     72  56  57 S6        30.22F
DTN SHREVEPORT SUNNY     71  55  56 SE5       30.22F

$$

LAZ014-016-191800-
NORTHEAST LOUISIANA

CITY           SKY/WX    TMP DP  RH WIND       PRES   REMARKS
MONROE         SUNNY     73  51  46 VRB3      30.23F
TALLULAH       SUNNY     73  53  49 NE8       30.21F

$$




USA.gov is the U.S. government's official web portal to all federal, state and local government web resources and services.